Location: ??????
(41.3164°N, 22.6615°E)
Time: 23:12:20
(UTC+00:00)

CANX-2 - Visible Passes

Search period start: 10 August 2022 00:00
Search period end: 20 August 2022 00:00
Orbit: 590 x 610 km, 97.7° (Epoch: 10 August)

Date Brightness Start Highest point End Pass type
(mag) Time Alt. Az. Time Alt. Az. Time Alt. Az.
10 Aug ? 01:22:54 10° NE 01:26:07 21° E 01:29:20 10° SE visible
10 Aug ? 02:58:08 10° N 03:01:53 32° WNW 03:05:37 10° SW visible
11 Aug ? 01:33:43 10° NE 01:37:21 28° E 01:40:58 10° SSE visible
12 Aug ? 01:44:38 10° NNE 01:48:34 37° E 01:52:29 10° SSE visible
13 Aug ? 01:55:39 10° NNE 01:59:46 50° E 02:03:47 10° S visible
14 Aug ? 02:06:44 10° NNE 02:10:56 68° ESE 02:15:00 11° S visible
15 Aug ? 02:17:51 10° NNE 02:22:05 89° WNW 02:26:13 11° SSW visible
16 Aug ? 00:56:35 10° E 00:57:05 10° E 00:57:35 10° E visible
16 Aug ? 02:29:02 10° N 02:33:14 66° WNW 02:37:25 10° SSW visible
17 Aug ? 01:06:08 10° ENE 01:08:21 14° E 01:10:34 10° ESE visible
17 Aug ? 02:40:16 10° N 02:44:21 49° WNW 02:48:26 10° SSW visible
18 Aug ? 01:16:37 10° NE 01:19:36 18° E 01:22:34 10° SE visible
18 Aug ? 02:51:33 10° N 02:55:26 37° WNW 02:59:20 10° SW visible
19 Aug ? 01:27:21 10° NE 01:30:50 24° E 01:34:16 10° SSE visible
19 Aug ? 03:02:53 10° N 03:06:31 28° WNW 03:10:09 10° SW visible
